[[{"header":{"parameterUnit":"m.s-1","parameterCategory":1,"la1":30.2991,"la2":30.254,"lo1":-89.0895,"lo2":-89.0444,"dy":0.0017,"dx":0.0017,"nx":28,"ny":28,"refTime":"2025-04-06T21:00:00:Z","depth":0,"parameterNumber":2,"parameterNumberName":"U-component_of_WINDS"},"data":[0,0,0,0,0,0,0,0,0,0,0,0,0,0,0,0,0,0,0,0,0,0,0,0,0,0,0,0,0,0,0,0,0,0,0,0,0,0,0,0,0,0,0,0,0,0,0,0,0,0,0,0,0,0,0,0,0,0,1.7307,1.7307,0,1.7266,1.7265,1.7265,1.7222,1.7222,1.7221,1.7221,1.7177,1.7177,1.7176,0,0,0,0,0,0,0,0,0,0,0,0,0,1.7351,1.735,1.7308,1.7307,1.7306,1.7266,1.7265,1.7265,1.7222,1.7222,1.7221,1.722,1.7178,1.7177,1.7176,0,0,0,0,0,0,0,0,0,0,0,0,0,1.7323,1.735,1.7308,1.728,1.7278,1.7266,1.7265,1.7264,1.7222,1.7222,1.7221,1.722,1.7178,1.7177,1.7176,1.7188,0,0,1.7173,1.7173,0,0,0,0,0,0,0,0,1.7325,1.7321,1.7285,1.7282,1.7279,1.7248,1.7265,1.7239,1.7223,1.7243,1.7221,1.722,1.7202,1.7199,1.7193,1.7186,1.7184,1.7173,1.7173,1.7172,1.7172,0,0,0,0,0,0,0,1.7327,1.7323,1.7291,1.7285,1.7281,1.7271,1.7266,1.726,1.7228,1.7242,1.7238,1.7234,1.72,1.7194,1.7192,1.7183,1.7173,1.7172,1.7172,1.7172,1.7185,1.7186,0,0,0,0,0,0,1.7333,1.7325,1.7292,1.729,1.73,1.727,1.7265,1.7259,1.7228,1.7222,1.7235,1.7232,1.7196,1.7193,1.719,1.7202,1.7172,1.7171,1.7171,1.7184,1.7185,1.7186,0,0,0,0,0,0,1.7334,1.733,1.7294,1.7306,1.7301,1.7271,1.7264,1.7259,1.7252,1.7223,1.7217,1.7234,1.7195,1.7191,1.7189,1.72,1.7171,1.717,1.7183,1.7184,1.7185,1.7226,0,0,0,0,0,0,1.7335,1.7331,1.7335,1.7307,1.7301,1.7294,1.7265,1.7258,1.7251,1.7247,1.7221,1.7216,1.7194,1.719,1.7188,1.7198,1.7169,1.7182,1.7183,1.7185,1.7224,1.7229,1.7233,0,0,0,0,0,1.7337,1.7348,1.7335,1.7331,1.7305,1.7294,1.7291,1.7266,1.7252,1.7256,1.7237,1.7216,1.7199,1.7191,1.7187,1.7198,1.7181,1.7183,1.7185,1.7222,1.7228,1.7233,0,0,0,0,0,0,1.7377,1.7343,1.7329,1.7331,1.7316,1.7287,1.7291,1.7273,1.7261,1.7258,1.7228,1.7222,1.7224,1.721,1.7201,1.7208,1.7187,1.7189,1.7216,1.7222,1.7227,1.723,1.7169,0,0,0,0,0,1.7386,1.7381,1.7351,1.7356,1.7349,1.7322,1.7316,1.7298,1.7281,1.7275,1.7255,1.724,1.7231,1.7226,1.7216,1.7222,1.7216,1.7227,1.7232,1.7236,1.7238,1.7241,1.7246,1.7193,1.7193,1.7193,0,0,1.7405,1.7386,1.7384,1.7363,1.735,1.7345,1.7316,1.7312,1.7308,1.7274,1.7271,1.7256,1.7237,1.7239,1.7239,1.7228,1.7251,1.7239,1.7242,1.7241,1.7244,1.7249,1.7253,1.7194,1.7194,1.7194,0,0,1.7436,1.7421,1.7424,1.7411,1.739,1.7372,1.7373,1.7347,1.7336,1.7333,1.7307,1.7303,1.7288,1.7275,1.7267,1.7295,1.7276,1.7293,1.7318,1.7321,1.7325,1.7329,1.734,1.7344,1.7295,1.7295,1.7295,0,1.7462,1.7453,1.7427,1.7425,1.7417,1.7386,1.7389,1.7377,1.7355,1.735,1.7338,1.732,1.7305,1.7304,1.7311,1.7305,1.7306,1.7296,1.7327,1.733,1.7333,1.7343,1.7347,1.7297,1.7297,1.7297,1.7296,0,1.7486,1.7481,1.7485,1.7465,1.7458,1.7458,1.7432,1.7428,1.7411,1.7395,1.7392,1.7373,1.7359,1.7358,1.7341,1.7355,1.7349,1.7332,1.7311,1.7341,1.735,1.7353,1.73,1.73,1.7299,1.7298,0,0,1.754,1.7507,1.7509,1.75,1.7476,1.7471,1.7471,1.7457,1.7455,1.7441,1.744,1.7428,1.7413,1.7404,1.7386,1.7389,1.7414,1.7372,1.7371,1.7381,1.7429,1.7442,1.7447,1.7401,1.7402,1.7403,1.7431,0,1.7568,1.7565,1.7542,1.7545,1.754,1.7512,1.7512,1.7497,1.7482,1.7476,1.7459,1.7452,1.7432,1.7427,1.7428,1.7411,1.7423,1.7408,1.7401,1.7401,1.7406,1.7451,1.7464,1.7492,1.7434,1.7435,1.7435,0,1.7599,1.7588,1.7591,1.7568,1.7565,1.7565,1.7552,1.7546,1.753,1.7519,1.7509,1.7489,1.7488,1.7468,1.7465,1.7456,1.7451,1.7442,1.7443,1.7441,1.742,1.7451,1.75,1.7505,1.744,1.744,1.744,0,1.7639,1.7625,1.7625,1.7618,1.7591,1.7592,1.7581,1.7564,1.7558,1.7546,1.7542,1.7531,1.7525,1.7516,1.7494,1.7482,1.7495,1.7473,1.7486,1.7486,1.7489,1.7489,1.7539,1.7486,1.7486,1.7486,1.7486,0,1.7672,1.7675,1.7643,1.7643,1.7646,1.762,1.7624,1.761,1.7595,1.7593,1.7567,1.7565,1.7536,1.7531,1.7514,1.7515,1.7512,1.7503,1.7499,1.7506,1.7507,1.7502,1.75,1.7487,1.7487,1.7487,1.7487,0,1.7717,1.7695,1.7694,1.7669,1.7663,1.7666,1.7645,1.7645,1.7629,1.7626,1.7624,1.7598,1.7591,1.7569,1.7556,1.7544,1.7551,1.7542,1.7556,1.7553,1.7567,1.7567,1.7616,1.7621,1.7566,1.7566,1.7567,0,1.7739,1.7741,1.7717,1.7714,1.7704,1.7699,1.7693,1.7668,1.7663,1.7645,1.7647,1.7638,1.7629,1.762,1.76,1.7591,1.7581,1.7599,1.758,1.7587,1.7582,1.7582,1.7583,1.7604,1.7604,1.7605,1.7605,0,1.7781,1.7771,1.7763,1.7753,1.7747,1.7737,1.7725,1.7724,1.7696,1.7692,1.7685,1.7679,1.7666,1.7658,1.7645,1.7634,1.7616,1.7612,1.7614,1.7621,1.763,1.7626,1.7568,1.7611,1.761,1.761,1.761,1.7609,1.7816,1.7816,1.78,1.7793,1.7782,1.7773,1.7771,1.7756,1.7749,1.7737,1.7723,1.7718,1.7702,1.7684,1.7674,1.767,1.766,1.7663,1.7664,1.7666,1.7669,1.7631,1.7668,1.7668,1.7668,1.7667,1.7667,0,1.7857,1.7845,1.7839,1.7825,1.7819,1.7803,1.779,1.7787,1.7782,1.777,1.7762,1.7755,1.7747,1.7728,1.7718,1.7719,1.771,1.7717,1.7717,1.7715,1.7679,1.7678,1.7725,1.7725,1.7725,1.7725,1.7725,1.7725,1.7877,1.7878,1.7866,1.7862,1.785,1.7845,1.7839,1.7831,1.7821,1.7814,1.7807,1.7795,1.778,1.7769,1.7762,1.7756,1.7754,1.7764,1.7756,1.7723,1.7717,1.7712,1.7711,1.7764,1.7764,1.7793,1.7793,1.7793]},{"header":{"parameterUnit":"m.s-1","parameterCategory":1,"la1":30.2991,"la2":30.254,"lo1":-89.0895,"lo2":-89.0444,"dy":0.0017,"dx":0.0017,"nx":28,"ny":28,"refTime":"2025-04-06T21:00:00:Z","depth":0,"parameterNumber":3,"parameterNumberName":"V-component_of_WINDS"},"data":[0,0,0,0,0,0,0,0,0,0,0,0,0,0,0,0,0,0,0,0,0,0,0,0,0,0,0,0,0,0,0,0,0,0,0,0,0,0,0,0,0,0,0,0,0,0,0,0,0,0,0,0,0,0,0,0,0,0,7.9403,7.9404,0,7.958,7.9582,7.9584,7.9617,7.9616,7.9614,7.9613,7.9794,7.98,7.9806,0,0,0,0,0,0,0,0,0,0,0,0,0,7.9092,7.9097,7.9402,7.9405,7.9407,7.958,7.9582,7.9585,7.9617,7.9616,7.9614,7.9612,7.9792,7.9799,7.9807,0,0,0,0,0,0,0,0,0,0,0,0,0,7.9244,7.9099,7.9402,7.9444,7.945,7.958,7.9583,7.9586,7.9618,7.9616,7.9613,7.9611,7.979,7.9799,7.9808,7.9908,0,0,7.9836,7.984,0,0,0,0,0,0,0,0,7.9235,7.9255,7.9436,7.9441,7.9448,7.9574,7.9539,7.9694,7.9618,7.9554,7.9613,7.961,7.9723,7.9737,7.9775,7.9917,7.9925,7.9837,7.9843,7.9847,7.9849,0,0,0,0,0,0,0,7.9224,7.9247,7.9473,7.9438,7.9446,7.9454,7.9473,7.9569,7.9648,7.9559,7.9562,7.9583,7.9726,7.9766,7.978,7.9927,7.9837,7.9845,7.9851,7.9854,8.0163,8.0166,0,0,0,0,0,0,7.9206,7.9238,7.9467,7.9478,7.9334,7.9461,7.9483,7.9536,7.9647,7.9662,7.9584,7.9584,7.9752,7.9769,7.9786,7.9914,7.9846,7.9855,7.986,8.0161,8.0164,8.0167,0,0,0,0,0,0,7.92,7.9226,7.946,7.9359,7.939,7.9469,7.9528,7.9541,7.9581,7.9666,7.9681,7.9612,7.9751,7.9773,7.9879,7.992,7.9859,7.9868,8.0158,8.0162,8.0165,8.0167,0,0,0,0,0,0,7.919,7.9224,7.9262,7.936,7.9395,7.9549,7.9531,7.9546,7.9597,7.9598,7.9695,7.971,7.9751,7.9865,7.9888,7.9932,7.9875,8.0154,8.016,8.0164,8.0164,8.0171,8.0177,0,0,0,0,0,7.9179,7.9255,7.9264,7.9292,7.9445,7.9551,7.9571,7.9617,7.96,7.9641,7.9696,7.9706,7.9912,7.9875,7.9901,7.9949,8.0152,8.0158,8.0164,8.0161,8.017,8.0177,0,0,0,0,0,0,7.9159,7.9268,7.928,7.9389,7.9461,7.9556,7.9608,7.9624,7.9701,7.9699,7.9752,7.9774,7.9877,7.9923,7.988,8.0054,8.0031,8.0042,8.002,8.0029,8.0035,8.0022,7.9883,0,0,0,0,0,7.9167,7.9245,7.9336,7.9424,7.9459,7.9527,7.9575,7.9605,7.9681,7.9711,7.9774,7.9847,7.9929,7.9981,8.006,8.0171,8.0194,8.0217,8.0223,8.0228,8.0238,8.0303,8.0315,8.0187,8.0187,8.0186,0,0,7.9185,7.9255,7.93,7.9422,7.948,7.956,7.9553,7.9636,7.9696,7.9724,7.9828,7.9876,7.9962,8.0071,8.0122,8.0113,8.0279,8.0236,8.0239,8.0246,8.031,8.0322,8.0333,8.0191,8.019,8.0189,0,0,7.9259,7.9318,7.94,7.9459,7.9549,7.9595,7.9614,7.9708,7.9742,7.9847,7.9871,7.9942,8.0081,8.0142,8.0191,8.0291,8.0305,8.0315,8.0349,8.0412,8.0422,8.0431,8.0469,8.0482,8.0324,8.0324,8.0324,0,7.927,7.9391,7.9439,7.9523,7.9577,7.9607,7.969,7.9745,7.9856,7.9893,7.9881,8.0058,8.0117,8.0242,8.0267,8.0305,8.033,8.0304,8.0417,8.0426,8.0436,8.0472,8.0486,8.0325,8.0325,8.0325,8.0325,0,7.9401,7.9484,7.9539,7.9647,7.9707,7.9789,7.9851,7.9906,7.9931,7.9978,8.0086,8.0159,8.0255,8.0286,8.0311,8.0416,8.0408,8.0406,8.0384,8.0448,8.0484,8.0498,8.0326,8.0326,8.0326,8.0326,0,0,7.9465,7.9601,7.962,7.9671,7.9774,7.9839,7.9924,8.0019,8.0066,8.0142,8.0216,8.0334,8.0333,8.0389,8.0421,8.0475,8.0553,8.0467,8.047,8.0482,8.0677,8.0679,8.0694,8.0563,8.0566,8.0568,8.067,0,7.9553,7.9706,7.9753,7.9882,7.9961,7.9992,8.0066,8.0138,8.0184,8.0259,8.031,8.0394,8.0385,8.042,8.0475,8.0532,8.0593,8.0525,8.0633,8.0637,8.0612,8.0712,8.0714,8.0807,8.0684,8.0686,8.0688,0,7.9675,7.9755,7.9892,7.9987,8.0022,8.0088,8.018,8.025,8.0332,8.0363,8.0426,8.0454,8.0546,8.0519,8.0647,8.0599,8.0647,8.0681,8.0686,8.0699,8.0667,8.0729,8.0837,8.0852,8.071,8.0708,8.0707,0,7.9711,7.9853,7.9954,7.9996,8.0108,8.0155,8.0204,8.0284,8.0339,8.042,8.0456,8.0546,8.0596,8.0665,8.0717,8.0692,8.0842,8.0818,8.0871,8.087,8.0901,8.0899,8.102,8.0929,8.0929,8.0929,8.0928,0,7.9804,7.9887,7.9972,8.0034,8.0129,8.0182,8.0275,8.0325,8.0397,8.0471,8.0502,8.057,8.0635,8.0712,8.0753,8.0854,8.0876,8.0904,8.0914,8.0902,8.0899,8.0935,8.093,8.0932,8.0932,8.0931,8.093,0,7.9861,7.9921,8.0033,8.0132,8.0159,8.0224,8.0309,8.0371,8.0419,8.0512,8.0537,8.0613,8.0706,8.0765,8.0882,8.0911,8.1022,8.1029,8.0995,8.1,8.105,8.1045,8.12,8.1224,8.1115,8.1116,8.1117,0,7.9917,7.9982,8.0088,8.014,8.019,8.0273,8.033,8.0386,8.0444,8.0544,8.0595,8.069,8.0769,8.0916,8.0983,8.1074,8.1085,8.1132,8.1098,8.1085,8.1088,8.1084,8.1092,8.1138,8.1139,8.114,8.114,0,8.0012,8.0039,8.0119,8.0212,8.0279,8.0354,8.0429,8.047,8.0539,8.0602,8.0698,8.076,8.0881,8.0976,8.1074,8.1125,8.1145,8.1151,8.1168,8.1157,8.1135,8.115,8.1012,8.1147,8.1146,8.1146,8.1146,8.1145,8.0071,8.0132,8.0217,8.0307,8.0369,8.0439,8.0503,8.0561,8.0642,8.0745,8.0773,8.0874,8.0958,8.1091,8.1144,8.1225,8.1219,8.1243,8.125,8.1256,8.1258,8.1121,8.1243,8.1242,8.1242,8.1242,8.1242,0,8.0169,8.0226,8.0308,8.0413,8.0484,8.0497,8.0582,8.064,8.0729,8.0805,8.0883,8.0994,8.1087,8.1162,8.1258,8.1308,8.132,8.1331,8.1329,8.1341,8.1256,8.1233,8.132,8.132,8.132,8.132,8.132,8.132,8.0229,8.0332,8.037,8.0505,8.0562,8.0661,8.0709,8.0774,8.0835,8.0959,8.1036,8.1084,8.1161,8.1263,8.1349,8.1369,8.1404,8.1414,8.1435,8.1355,8.1347,8.1338,8.1317,8.142,8.1421,8.1514,8.1515,8.1515]}]]